RYR4FV LEZL-LIPZ

Flight info

Callsign RYR4FV
Flight time N/A
Altitude 36000
Route MAR M744 MGA N851 MHN M603 MORSS DCT BAVON DCT ORKUM DCT ELSAG DCT ALG DCT ROMPO DCT DEDOM DCT PELEG DCT SUKOM Q125 NIMUM Z43 OTGIG
Aircraft B738/M-SDE2E3FGHIRWXY/LB1

Departure

Time 2026-04-24 06:05
Airport Seville Airport (LEZL)

Arrival

Time N/A
Airport Venice Marco Polo Airport (LIPZ)
Time Latitude Longitude Altitude Speed Heading
2026-04-24 05:32 37.42334 -5.89795 96 ft 0 kts 345°
2026-04-24 05:57 37.42324 -5.89792 97 ft 2 kts 346°
2026-04-24 05:57 37.42308 -5.89787 97 ft 2 kts 346°
2026-04-24 05:58 37.42292 -5.89782 96 ft 2 kts 345°
2026-04-24 05:58 37.42277 -5.89775 97 ft 2 kts 314°
2026-04-24 05:58 37.42271 -5.89761 98 ft 1 kts 258°
2026-04-24 05:58 37.42272 -5.89755 97 ft 0 kts 253°
2026-04-24 05:59 37.42271 -5.89760 98 ft 2 kts 246°
2026-04-24 05:59 37.42237 -5.89799 97 ft 9 kts 219°
2026-04-24 06:00 37.42186 -5.89853 98 ft 9 kts 223°
2026-04-24 06:00 37.42140 -5.89910 100 ft 9 kts 225°
2026-04-24 06:00 37.42093 -5.89964 101 ft 9 kts 212°
2026-04-24 06:00 37.42053 -5.90020 101 ft 9 kts 249°
2026-04-24 06:01 37.42031 -5.90093 101 ft 9 kts 213°
2026-04-24 06:01 37.41982 -5.90140 103 ft 9 kts 258°
2026-04-24 06:01 37.41980 -5.90224 103 ft 11 kts 269°
2026-04-24 06:01 37.41979 -5.90351 101 ft 19 kts 270°
2026-04-24 06:02 37.41979 -5.90540 99 ft 23 kts 270°
2026-04-24 06:02 37.41978 -5.90748 95 ft 25 kts 269°
2026-04-24 06:02 37.41977 -5.90972 89 ft 26 kts 270°
2026-04-24 06:02 37.41975 -5.91185 88 ft 18 kts 268°
2026-04-24 06:03 37.41962 -5.91278 87 ft 8 kts 246°
2026-04-24 06:03 37.41915 -5.91314 86 ft 8 kts 183°
2026-04-24 06:03 37.41866 -5.91285 90 ft 8 kts 133°
2026-04-24 06:03 37.41836 -5.91227 89 ft 8 kts 118°
2026-04-24 06:04 37.41811 -5.91169 91 ft 8 kts 118°
2026-04-24 06:04 37.41792 -5.91108 91 ft 7 kts 104°
2026-04-24 06:04 37.41788 -5.91001 94 ft 32 kts 90°
2026-04-24 06:04 37.41791 -5.90354 100 ft 114 kts 89°
2026-04-24 06:05 37.41794 -5.89050 137 ft 179 kts 89°
2026-04-24 06:05 37.41829 -5.87362 771 ft 201 kts 88°
2026-04-24 06:05 37.41893 -5.85576 1626 ft 207 kts 88°
2026-04-24 06:05 37.41969 -5.83737 2354 ft 216 kts 85°
2026-04-24 06:06 37.42240 -5.81864 3023 ft 226 kts 80°
2026-04-24 06:06 37.42469 -5.79860 3524 ft 237 kts 85°
2026-04-24 06:06 37.42708 -5.77712 3831 ft 258 kts 82°
2026-04-24 06:06 37.42892 -5.75428 4389 ft 267 kts 92°
2026-04-24 06:07 37.42835 -5.73061 5228 ft 272 kts 93°
2026-04-24 06:07 37.42780 -5.70681 6223 ft 272 kts 92°
2026-04-24 06:07 37.42735 -5.68286 7086 ft 276 kts 92°
2026-04-24 06:07 37.42697 -5.65848 7919 ft 281 kts 93°
2026-04-24 06:08 37.42666 -5.63408 8742 ft 285 kts 94°
2026-04-24 06:08 37.42637 -5.60894 9593 ft 289 kts 94°
2026-04-24 06:08 37.42610 -5.58346 10387 ft 294 kts 94°
2026-04-24 06:08 37.42584 -5.55766 11160 ft 297 kts 94°
2026-04-24 06:09 37.42559 -5.53146 11940 ft 301 kts 94°
2026-04-24 06:09 37.42533 -5.50496 12717 ft 305 kts 94°
2026-04-24 06:09 37.42508 -5.47813 13491 ft 309 kts 94°
2026-04-24 06:09 37.42480 -5.45095 14201 ft 315 kts 94°
2026-04-24 06:10 37.42448 -5.42246 14411 ft 337 kts 94°
2026-04-24 06:10 37.42422 -5.39239 14582 ft 360 kts 93°
2026-04-24 06:10 37.42429 -5.36007 14842 ft 377 kts 92°
2026-04-24 06:11 37.42486 -5.29305 16074 ft 387 kts 92°
2026-04-24 06:11 37.42516 -5.25901 16745 ft 391 kts 92°
2026-04-24 06:11 37.42543 -5.22466 17371 ft 395 kts 92°
2026-04-24 06:11 37.42568 -5.18983 18005 ft 400 kts 92°
2026-04-24 06:12 37.42590 -5.15468 18590 ft 404 kts 93°
2026-04-24 06:12 37.42609 -5.11919 19186 ft 407 kts 93°
2026-04-24 06:12 37.42628 -5.08405 19809 ft 408 kts 93°
2026-04-24 06:12 37.42645 -5.04834 20406 ft 410 kts 92°
2026-04-24 06:13 37.42661 -5.01232 20977 ft 413 kts 92°
2026-04-24 06:13 37.42676 -4.97610 21561 ft 415 kts 92°
2026-04-24 06:13 37.42689 -4.93975 22100 ft 417 kts 92°
2026-04-24 06:13 37.42701 -4.90310 22648 ft 420 kts 92°
2026-04-24 06:14 37.42713 -4.86632 23198 ft 422 kts 92°
2026-04-24 06:14 37.42723 -4.82982 23722 ft 424 kts 92°
2026-04-24 06:14 37.42732 -4.79259 24164 ft 426 kts 93°
2026-04-24 06:14 37.42740 -4.75529 24611 ft 428 kts 93°
2026-04-24 06:15 37.42747 -4.71776 25054 ft 430 kts 93°
2026-04-24 06:15 37.42753 -4.68008 25482 ft 431 kts 93°
2026-04-24 06:15 37.42757 -4.64227 25902 ft 433 kts 94°
2026-04-24 06:15 37.42761 -4.60428 26311 ft 435 kts 94°
2026-04-24 06:16 37.42763 -4.56679 26856 ft 433 kts 94°
2026-04-24 06:16 37.42766 -4.52906 27496 ft 429 kts 94°
2026-04-24 06:16 37.42767 -4.49176 28113 ft 426 kts 94°
2026-04-24 06:16 37.42766 -4.45455 28654 ft 425 kts 95°
2026-04-24 06:17 37.42763 -4.41743 29160 ft 424 kts 95°
2026-04-24 06:17 37.42760 -4.38033 29696 ft 423 kts 95°
2026-04-24 06:17 37.42755 -4.34351 30229 ft 421 kts 95°
2026-04-24 06:17 37.42749 -4.30677 30662 ft 420 kts 95°
2026-04-24 06:18 37.42741 -4.27055 31026 ft 420 kts 95°
2026-04-24 06:18 37.42732 -4.23383 31387 ft 420 kts 95°
2026-04-24 06:18 37.42722 -4.19702 31752 ft 420 kts 95°
2026-04-24 06:18 37.42712 -4.16034 32137 ft 419 kts 95°
2026-04-24 06:19 37.42700 -4.12367 32509 ft 419 kts 95°
2026-04-24 06:19 37.42687 -4.08695 32845 ft 419 kts 96°
2026-04-24 06:19 37.42673 -4.05032 33219 ft 419 kts 95°
2026-04-24 06:19 37.42659 -4.01376 33621 ft 418 kts 95°
2026-04-24 06:20 37.42643 -3.97723 33965 ft 417 kts 95°
2026-04-24 06:20 37.42626 -3.94118 34249 ft 418 kts 95°
2026-04-24 06:20 37.42607 -3.90464 34525 ft 418 kts 95°
2026-04-24 06:20 37.42588 -3.86816 34809 ft 418 kts 95°
2026-04-24 06:21 37.42567 -3.83157 35066 ft 418 kts 95°
2026-04-24 06:21 37.42545 -3.79502 35326 ft 418 kts 95°
2026-04-24 06:21 37.42522 -3.75847 35597 ft 418 kts 95°
2026-04-24 06:21 37.42498 -3.72191 35853 ft 418 kts 95°
2026-04-24 06:22 37.42473 -3.68537 36085 ft 419 kts 95°
2026-04-24 06:22 37.42417 -3.61177 36088 ft 426 kts 95°
2026-04-24 06:23 37.42360 -3.53765 36082 ft 420 kts 95°
2026-04-24 06:23 37.42301 -3.46479 36089 ft 416 kts 95°
2026-04-24 06:24 37.42232 -3.39201 36109 ft 417 kts 95°
2026-04-24 06:24 37.42159 -3.31936 36101 ft 419 kts 95°
2026-04-24 06:25 37.42083 -3.24610 36101 ft 420 kts 95°
2026-04-24 06:25 37.42002 -3.17254 36103 ft 421 kts 95°
2026-04-24 06:26 37.41917 -3.09886 36098 ft 421 kts 95°
2026-04-24 06:26 37.41842 -3.03761 36103 ft 421 kts 95°
2026-04-24 06:27 37.41734 -2.95201 36101 ft 421 kts 95°
2026-04-24 06:27 37.41752 -2.87826 36094 ft 424 kts 86°
2026-04-24 06:28 37.42906 -2.81809 36099 ft 431 kts 70°
2026-04-24 06:28 37.45498 -2.74996 36105 ft 432 kts 66°
2026-04-24 06:29 37.48623 -2.67143 36106 ft 432 kts 67°
2026-04-24 06:29 37.50821 -2.61500 36110 ft 431 kts 67°
2026-04-24 06:30 37.53431 -2.54711 36114 ft 431 kts 67°
2026-04-24 06:30 37.56036 -2.47907 36108 ft 431 kts 67°
2026-04-24 06:31 37.59058 -2.39996 36110 ft 431 kts 67°
2026-04-24 06:31 37.61231 -2.34301 36119 ft 431 kts 67°
2026-04-24 06:32 37.63809 -2.27530 36107 ft 431 kts 67°
2026-04-24 06:32 37.66400 -2.20719 36121 ft 431 kts 67°
2026-04-24 06:33 37.69014 -2.13826 36132 ft 442 kts 67°
2026-04-24 06:33 37.71699 -2.06731 36130 ft 454 kts 67°
2026-04-24 06:34 37.74430 -1.99499 36125 ft 465 kts 67°
2026-04-24 06:34 37.77227 -1.92080 36119 ft 470 kts 67°
2026-04-24 06:35 37.80012 -1.84679 36097 ft 461 kts 67°
2026-04-24 06:35 37.82731 -1.77431 36108 ft 459 kts 67°
2026-04-24 06:36 37.85456 -1.70140 36116 ft 459 kts 67°
2026-04-24 06:36 37.88181 -1.62837 36112 ft 459 kts 67°
2026-04-24 06:37 37.90904 -1.55527 36102 ft 459 kts 67°
2026-04-24 06:37 37.93603 -1.48238 36109 ft 460 kts 67°
2026-04-24 06:38 37.96312 -1.40891 36113 ft 461 kts 67°
2026-04-24 06:38 37.99020 -1.33532 36108 ft 461 kts 67°
2026-04-24 06:39 38.01730 -1.26152 36096 ft 462 kts 67°
2026-04-24 06:39 38.04440 -1.18754 36102 ft 462 kts 67°
2026-04-24 06:40 38.07129 -1.11395 36100 ft 463 kts 67°
2026-04-24 06:40 38.09834 -1.03976 36093 ft 463 kts 67°
2026-04-24 06:41 38.12530 -0.96560 36087 ft 462 kts 67°
2026-04-24 06:41 38.15225 -0.89130 36096 ft 464 kts 67°
2026-04-24 06:42 38.17902 -0.81729 36092 ft 465 kts 67°
2026-04-24 06:42 38.20598 -0.74259 36099 ft 465 kts 67°
2026-04-24 06:43 38.23293 -0.66772 36104 ft 466 kts 67°
2026-04-24 06:43 38.25983 -0.59285 36104 ft 465 kts 67°
2026-04-24 06:44 38.28554 -0.51793 36101 ft 464 kts 69°
2026-04-24 06:44 38.30940 -0.44173 36100 ft 463 kts 70°
2026-04-24 06:45 38.33334 -0.36572 36097 ft 462 kts 69°
2026-04-24 06:45 38.35749 -0.28992 36092 ft 461 kts 69°
2026-04-24 06:46 38.38200 -0.21517 36090 ft 460 kts 68°
2026-04-24 06:46 38.40714 -0.14023 36087 ft 459 kts 68°
2026-04-24 06:47 38.43209 -0.06522 36092 ft 459 kts 69°
2026-04-24 06:47 38.45680 0.00975 36097 ft 459 kts 69°
2026-04-24 06:48 38.48096 0.08476 36109 ft 462 kts 69°
2026-04-24 06:48 38.50534 0.16098 36108 ft 467 kts 69°
2026-04-24 06:49 38.52998 0.23802 36103 ft 469 kts 69°
2026-04-24 06:49 38.55460 0.31504 36092 ft 466 kts 69°
2026-04-24 06:50 38.57869 0.39066 36094 ft 459 kts 69°
2026-04-24 06:50 38.60266 0.46609 36101 ft 457 kts 69°
2026-04-24 06:51 38.62658 0.54137 36101 ft 457 kts 69°
2026-04-24 06:51 38.65052 0.61663 36105 ft 457 kts 69°
2026-04-24 06:52 38.67441 0.69205 36106 ft 458 kts 69°
2026-04-24 06:52 38.69801 0.76731 36100 ft 460 kts 69°
2026-04-24 06:53 38.72177 0.84348 36103 ft 461 kts 69°
2026-04-24 06:53 38.74556 0.91989 36104 ft 463 kts 69°
2026-04-24 06:54 38.76936 0.99652 36100 ft 464 kts 69°
2026-04-24 06:54 38.79303 1.07291 36103 ft 464 kts 69°
2026-04-24 06:55 38.81683 1.14993 36092 ft 464 kts 69°
2026-04-24 06:55 38.84051 1.22677 36092 ft 461 kts 69°
2026-04-24 06:56 38.86394 1.30304 36098 ft 457 kts 68°
2026-04-24 06:56 38.88696 1.37817 36092 ft 454 kts 68°
2026-04-24 06:57 38.90994 1.45336 36111 ft 452 kts 68°
2026-04-24 06:57 38.93275 1.52920 36115 ft 458 kts 69°
2026-04-24 06:58 38.95544 1.60633 36103 ft 466 kts 69°
2026-04-24 06:58 38.97821 1.68396 36092 ft 468 kts 69°
2026-04-24 06:59 39.00116 1.76225 36092 ft 468 kts 69°
2026-04-24 06:59 39.02404 1.84042 36096 ft 466 kts 69°
2026-04-24 07:00 39.04677 1.91831 36103 ft 464 kts 69°
2026-04-24 07:00 39.06906 1.99489 36104 ft 457 kts 69°
2026-04-24 07:01 39.09118 2.07114 36106 ft 454 kts 69°
2026-04-24 07:01 39.11322 2.14733 36127 ft 455 kts 69°
2026-04-24 07:02 39.13530 2.22384 36114 ft 457 kts 69°
2026-04-24 07:02 39.15739 2.30061 36121 ft 463 kts 69°
2026-04-24 07:03 39.17983 2.37888 36122 ft 467 kts 69°
2026-04-24 07:03 39.20231 2.45749 36105 ft 466 kts 69°
2026-04-24 07:04 39.22455 2.53551 36100 ft 459 kts 69°
2026-04-24 07:04 39.24626 2.61186 36111 ft 455 kts 69°
2026-04-24 07:05 39.26810 2.68833 36106 ft 453 kts 69°
2026-04-24 07:05 39.28979 2.76462 36107 ft 452 kts 69°
2026-04-24 07:06 39.31123 2.84099 36112 ft 452 kts 69°
2026-04-24 07:06 39.33246 2.91688 36111 ft 453 kts 69°
2026-04-24 07:07 39.35385 2.99347 36112 ft 454 kts 69°
2026-04-24 07:07 39.38596 3.10878 36118 ft 455 kts 69°
2026-04-24 07:08 39.40721 3.18540 36125 ft 456 kts 69°
2026-04-24 07:08 39.42943 3.26237 36115 ft 456 kts 63°
2026-04-24 07:09 39.46083 3.33322 36117 ft 454 kts 56°
2026-04-24 07:09 39.49384 3.40294 36119 ft 454 kts 56°
2026-04-24 07:10 39.52631 3.47244 36121 ft 454 kts 57°
2026-04-24 07:10 39.55857 3.54249 36123 ft 453 kts 57°
2026-04-24 07:11 39.59069 3.61267 36127 ft 452 kts 57°
2026-04-24 07:11 39.62269 3.68273 36125 ft 451 kts 57°
2026-04-24 07:12 39.65462 3.75278 36128 ft 450 kts 57°
2026-04-24 07:12 39.68619 3.82218 36129 ft 449 kts 56°
2026-04-24 07:13 39.71789 3.89202 36139 ft 448 kts 56°
2026-04-24 07:13 39.74948 3.96176 36145 ft 448 kts 56°
2026-04-24 07:14 39.78100 4.03152 36149 ft 447 kts 56°
2026-04-24 07:14 39.81220 4.10074 36157 ft 447 kts 56°
2026-04-24 07:15 39.84356 4.17042 36159 ft 446 kts 56°
2026-04-24 07:15 39.87079 4.24315 36150 ft 452 kts 70°
2026-04-24 07:16 39.88706 4.32231 36158 ft 453 kts 72°
2026-04-24 07:16 39.90274 4.40189 36157 ft 454 kts 72°
2026-04-24 07:17 39.91883 4.48093 36157 ft 455 kts 71°
2026-04-24 07:17 39.93522 4.56059 36147 ft 455 kts 71°
2026-04-24 07:18 39.95158 4.64035 36145 ft 455 kts 71°
2026-04-24 07:18 39.96845 4.71981 36144 ft 454 kts 70°
2026-04-24 07:19 39.98655 4.79806 36146 ft 453 kts 69°
2026-04-24 07:19 40.00479 4.87669 36145 ft 453 kts 69°
2026-04-24 07:20 40.02276 4.95532 36148 ft 452 kts 69°
2026-04-24 07:20 40.04056 5.03397 36150 ft 452 kts 69°
2026-04-24 07:21 40.05814 5.11206 36151 ft 451 kts 69°
2026-04-24 07:21 40.07578 5.19062 36154 ft 451 kts 69°
2026-04-24 07:22 40.09337 5.26924 36154 ft 451 kts 69°
2026-04-24 07:22 40.11090 5.34784 36154 ft 451 kts 69°
2026-04-24 07:23 40.12836 5.42644 36158 ft 451 kts 69°
2026-04-24 07:23 40.14569 5.50467 36160 ft 451 kts 69°
2026-04-24 07:24 40.16306 5.58344 36157 ft 451 kts 69°
2026-04-24 07:24 40.18043 5.66244 36159 ft 452 kts 69°
2026-04-24 07:25 40.19773 5.74142 36161 ft 452 kts 69°
2026-04-24 07:25 40.21489 5.82008 36164 ft 453 kts 69°
2026-04-24 07:26 40.23211 5.89927 36164 ft 453 kts 69°
2026-04-24 07:26 40.24930 5.97858 36162 ft 453 kts 69°
2026-04-24 07:27 40.26645 6.05800 36164 ft 453 kts 69°
2026-04-24 07:27 40.28346 6.13699 36165 ft 453 kts 69°
2026-04-24 07:28 40.30053 6.21645 36163 ft 453 kts 69°
2026-04-24 07:28 40.31755 6.29601 36163 ft 453 kts 69°
2026-04-24 07:29 40.33450 6.37553 36164 ft 453 kts 69°
2026-04-24 07:29 40.35139 6.45510 36166 ft 453 kts 70°
2026-04-24 07:30 40.36809 6.53405 36169 ft 453 kts 70°
2026-04-24 07:30 40.38487 6.61364 36166 ft 452 kts 70°
2026-04-24 07:31 40.40155 6.69312 36171 ft 452 kts 70°
2026-04-24 07:31 40.41817 6.77255 36176 ft 452 kts 70°
2026-04-24 07:32 40.43463 6.85156 36176 ft 451 kts 70°
2026-04-24 07:32 40.45112 6.93097 36174 ft 451 kts 70°
2026-04-24 07:33 40.46754 7.01038 36170 ft 450 kts 71°
2026-04-24 07:33 40.48390 7.08976 36179 ft 450 kts 71°
2026-04-24 07:34 40.50017 7.16902 36181 ft 450 kts 71°
2026-04-24 07:34 40.51628 7.24783 36182 ft 449 kts 71°
2026-04-24 07:35 40.53243 7.32709 36180 ft 449 kts 72°
2026-04-24 07:35 40.54850 7.40629 36178 ft 448 kts 72°
2026-04-24 07:36 40.56426 7.48561 36173 ft 449 kts 75°
2026-04-24 07:36 40.57255 7.56659 36181 ft 450 kts 81°
2026-04-24 07:37 40.57874 7.64853 36181 ft 450 kts 82°
2026-04-24 07:37 40.58533 7.73037 36180 ft 450 kts 81°
2026-04-24 07:38 40.59224 7.81217 36181 ft 449 kts 81°
2026-04-24 07:38 40.59915 7.89382 36183 ft 449 kts 81°
2026-04-24 07:39 40.60594 7.97499 36186 ft 449 kts 81°
2026-04-24 07:39 40.61269 8.05669 36187 ft 449 kts 81°
2026-04-24 07:40 40.61942 8.13852 36185 ft 449 kts 81°
2026-04-24 07:40 40.62626 8.22031 36194 ft 450 kts 78°
2026-04-24 07:41 40.64367 8.29806 36191 ft 445 kts 65°
2026-04-24 07:41 40.66798 8.37317 36185 ft 446 kts 64°
2026-04-24 07:42 40.69232 8.44822 36184 ft 445 kts 64°
2026-04-24 07:42 40.71618 8.52334 36184 ft 443 kts 65°
2026-04-24 07:43 40.73972 8.59831 36194 ft 442 kts 65°
2026-04-24 07:43 40.76297 8.67271 36195 ft 441 kts 65°
2026-04-24 07:44 40.78629 8.74752 36190 ft 441 kts 65°
2026-04-24 07:44 40.80959 8.82246 36195 ft 441 kts 65°
2026-04-24 07:45 40.83287 8.89750 36192 ft 442 kts 65°
2026-04-24 07:45 40.85595 8.97212 36194 ft 443 kts 65°
2026-04-24 07:46 40.87921 9.04755 36183 ft 444 kts 65°
2026-04-24 07:46 40.90248 9.12320 36189 ft 444 kts 65°
2026-04-24 07:47 40.92570 9.19892 36193 ft 445 kts 65°
2026-04-24 07:47 40.94874 9.27425 36191 ft 445 kts 65°
2026-04-24 07:48 40.97187 9.35012 36188 ft 445 kts 66°
2026-04-24 07:48 40.99498 9.42612 36171 ft 445 kts 66°
2026-04-24 07:49 41.01798 9.50198 36174 ft 444 kts 66°
2026-04-24 07:49 41.04071 9.57717 36189 ft 443 kts 66°
2026-04-24 07:50 41.06353 9.65285 36184 ft 442 kts 66°
2026-04-24 07:50 41.08685 9.72790 36170 ft 439 kts 59°
2026-04-24 07:51 41.10428 9.76070 36198 ft 434 kts 45°
2026-04-24 07:51 41.12648 9.78753 36169 ft 431 kts 34°
2026-04-24 07:51 41.17894 9.82401 36176 ft 429 kts 24°
2026-04-24 07:52 41.23300 9.85760 36176 ft 429 kts 25°
2026-04-24 07:52 41.28696 9.89164 36174 ft 430 kts 25°
2026-04-24 07:53 41.34096 9.92622 36176 ft 431 kts 25°
2026-04-24 07:53 41.39458 9.96079 36178 ft 431 kts 26°
2026-04-24 07:54 41.44860 9.99571 36178 ft 432 kts 26°
2026-04-24 07:54 41.50277 10.03077 36179 ft 433 kts 26°
2026-04-24 07:55 41.55692 10.06589 36177 ft 433 kts 26°
2026-04-24 07:55 41.61111 10.10109 36175 ft 433 kts 26°
2026-04-24 07:56 41.66500 10.13616 36171 ft 434 kts 26°
2026-04-24 07:56 41.71924 10.17153 36177 ft 434 kts 27°
2026-04-24 07:57 41.77342 10.20692 36177 ft 433 kts 27°
2026-04-24 07:57 41.82743 10.24227 36174 ft 432 kts 27°
2026-04-24 07:58 41.88103 10.27743 36174 ft 431 kts 27°
2026-04-24 07:58 41.93491 10.31283 36186 ft 431 kts 27°
2026-04-24 07:59 41.98878 10.34829 36179 ft 431 kts 27°
2026-04-24 07:59 42.04262 10.38380 36176 ft 431 kts 27°
2026-04-24 08:00 42.09605 10.41911 36184 ft 431 kts 27°
2026-04-24 08:00 42.15021 10.45389 36166 ft 431 kts 26°
2026-04-24 08:01 42.17734 10.47002 35994 ft 422 kts 25°
2026-04-24 08:01 42.20411 10.48565 35553 ft 417 kts 26°
2026-04-24 08:01 42.23079 10.50121 34938 ft 419 kts 26°
2026-04-24 08:01 42.25745 10.51686 34412 ft 418 kts 27°
2026-04-24 08:02 42.28401 10.53254 33981 ft 413 kts 27°
2026-04-24 08:02 42.31010 10.54802 33582 ft 408 kts 27°
2026-04-24 08:02 42.33566 10.56325 33129 ft 404 kts 27°
2026-04-24 08:02 42.36125 10.57855 32659 ft 401 kts 27°
2026-04-24 08:03 42.38671 10.59381 32199 ft 398 kts 27°
2026-04-24 08:03 42.41197 10.60896 31760 ft 395 kts 28°
2026-04-24 08:03 42.43697 10.62397 31329 ft 392 kts 28°
2026-04-24 08:03 42.46186 10.63893 30885 ft 390 kts 28°
2026-04-24 08:04 42.48657 10.65379 30462 ft 388 kts 28°
2026-04-24 08:04 42.51115 10.66859 30020 ft 385 kts 28°
2026-04-24 08:04 42.53549 10.68325 29538 ft 381 kts 28°
2026-04-24 08:04 42.55961 10.69780 29217 ft 378 kts 28°
2026-04-24 08:05 42.60804 10.72708 29172 ft 386 kts 27°
2026-04-24 08:05 42.65704 10.75672 29156 ft 385 kts 28°
2026-04-24 08:06 42.70587 10.78629 29165 ft 385 kts 28°
2026-04-24 08:06 42.75482 10.81599 29167 ft 385 kts 28°
2026-04-24 08:07 42.80345 10.84555 29170 ft 385 kts 28°
2026-04-24 08:07 42.85238 10.87535 29151 ft 385 kts 27°
2026-04-24 08:08 42.90128 10.90517 29177 ft 385 kts 27°
2026-04-24 08:09 42.97451 10.94993 29156 ft 384 kts 27°
2026-04-24 08:09 43.02290 10.97958 29165 ft 383 kts 27°
2026-04-24 08:10 43.07146 11.00937 29172 ft 382 kts 27°
2026-04-24 08:10 43.12000 11.03921 29183 ft 383 kts 27°
2026-04-24 08:11 43.16859 11.06914 29178 ft 383 kts 27°
2026-04-24 08:11 43.21691 11.09896 29183 ft 383 kts 27°
2026-04-24 08:12 43.26555 11.12901 29179 ft 384 kts 27°
2026-04-24 08:12 43.31422 11.15915 29175 ft 384 kts 27°
2026-04-24 08:13 43.36292 11.18935 29176 ft 384 kts 27°
2026-04-24 08:13 43.41124 11.21937 29183 ft 384 kts 27°
2026-04-24 08:14 43.45990 11.24965 29183 ft 383 kts 27°
2026-04-24 08:14 43.50842 11.27990 29181 ft 382 kts 27°
2026-04-24 08:15 43.55679 11.31012 29184 ft 382 kts 27°
2026-04-24 08:15 43.60473 11.34010 29031 ft 375 kts 27°
2026-04-24 08:15 43.62836 11.35489 28589 ft 372 kts 27°
2026-04-24 08:16 43.65191 11.36966 28009 ft 372 kts 27°
2026-04-24 08:16 43.67546 11.38444 27444 ft 372 kts 27°
2026-04-24 08:16 43.69894 11.39920 26978 ft 370 kts 27°
2026-04-24 08:16 43.72228 11.41386 26577 ft 366 kts 27°
2026-04-24 08:17 43.74535 11.42838 26145 ft 364 kts 27°
2026-04-24 08:17 43.76828 11.44282 25705 ft 362 kts 27°
2026-04-24 08:17 43.79083 11.45703 25297 ft 359 kts 27°
2026-04-24 08:17 43.81346 11.47131 24898 ft 357 kts 27°
2026-04-24 08:18 43.83603 11.48556 24486 ft 355 kts 27°
2026-04-24 08:18 43.85847 11.49974 24086 ft 353 kts 27°
2026-04-24 08:18 43.88076 11.51384 23669 ft 351 kts 27°
2026-04-24 08:18 43.90298 11.52790 23204 ft 350 kts 27°
2026-04-24 08:19 43.92500 11.54185 22765 ft 347 kts 27°
2026-04-24 08:19 43.94687 11.55571 22338 ft 345 kts 27°
2026-04-24 08:19 43.96862 11.56951 21894 ft 343 kts 27°
2026-04-24 08:19 43.99003 11.58311 21470 ft 341 kts 27°
2026-04-24 08:20 44.01151 11.59677 21192 ft 339 kts 27°
2026-04-24 08:20 44.03303 11.61047 21181 ft 344 kts 27°
2026-04-24 08:20 44.05483 11.62435 21157 ft 341 kts 27°
2026-04-24 08:20 44.07627 11.63800 21160 ft 338 kts 27°
2026-04-24 08:21 44.09762 11.65161 21165 ft 340 kts 27°
2026-04-24 08:21 44.11924 11.66541 21162 ft 341 kts 27°
2026-04-24 08:21 44.14081 11.67919 21158 ft 342 kts 27°
2026-04-24 08:21 44.16241 11.69299 21151 ft 342 kts 27°
2026-04-24 08:22 44.18369 11.70660 21157 ft 341 kts 27°
2026-04-24 08:22 44.20530 11.71996 21161 ft 342 kts 22°
2026-04-24 08:22 44.22854 11.72799 21164 ft 345 kts 11°
2026-04-24 08:22 44.25259 11.73024 21153 ft 349 kts
2026-04-24 08:23 44.27670 11.72667 21164 ft 350 kts 356°
2026-04-24 08:23 44.30088 11.72165 21156 ft 350 kts 355°
2026-04-24 08:23 44.32484 11.71643 21144 ft 347 kts 355°
2026-04-24 08:23 44.34860 11.71132 20878 ft 343 kts 355°
2026-04-24 08:24 44.37213 11.70641 20461 ft 342 kts 355°
2026-04-24 08:24 44.39577 11.70159 19966 ft 344 kts 355°
2026-04-24 08:24 44.41914 11.69688 19541 ft 343 kts 355°
2026-04-24 08:24 44.44266 11.69215 19174 ft 341 kts 355°
2026-04-24 08:25 44.46608 11.68745 18801 ft 339 kts 355°
2026-04-24 08:25 44.48933 11.68279 18433 ft 337 kts 355°
2026-04-24 08:25 44.51248 11.67814 18015 ft 335 kts 355°
2026-04-24 08:25 44.53549 11.67483 17630 ft 329 kts
2026-04-24 08:26 44.55780 11.67992 17249 ft 322 kts 19°
2026-04-24 08:26 44.57804 11.69251 16858 ft 317 kts 33°
2026-04-24 08:26 44.59642 11.70942 16465 ft 315 kts 35°
2026-04-24 08:26 44.61404 11.72642 15948 ft 309 kts 35°
2026-04-24 08:27 44.63180 11.74364 15279 ft 310 kts 34°
2026-04-24 08:27 44.64953 11.76073 14667 ft 309 kts 34°
2026-04-24 08:27 44.66720 11.77764 14366 ft 302 kts 34°
2026-04-24 08:27 44.68407 11.79372 14213 ft 286 kts 34°
2026-04-24 08:28 44.70009 11.80896 14163 ft 268 kts 33°
2026-04-24 08:28 44.71509 11.82321 14140 ft 254 kts 33°
2026-04-24 08:28 44.72963 11.83700 14015 ft 250 kts 33°
2026-04-24 08:28 44.74375 11.85040 13693 ft 247 kts 33°
2026-04-24 08:29 44.75807 11.86400 13172 ft 249 kts 33°
2026-04-24 08:29 44.77251 11.87773 12688 ft 251 kts 33°
2026-04-24 08:29 44.78692 11.89142 12269 ft 250 kts 32°
2026-04-24 08:29 44.80133 11.90511 11870 ft 250 kts 32°
2026-04-24 08:30 44.81569 11.91874 11464 ft 249 kts 32°
2026-04-24 08:30 44.83001 11.93234 11073 ft 248 kts 32°
2026-04-24 08:30 44.84414 11.94575 10675 ft 248 kts 32°
2026-04-24 08:30 44.85837 11.95927 10294 ft 247 kts 30°
2026-04-24 08:31 44.87418 11.96764 9826 ft 243 kts
2026-04-24 08:31 44.89048 11.96346 9391 ft 241 kts 335°
2026-04-24 08:31 44.90547 11.95279 9191 ft 241 kts 331°
2026-04-24 08:31 44.92011 11.94155 9162 ft 239 kts 331°
2026-04-24 08:32 44.93470 11.93035 9137 ft 239 kts 334°
2026-04-24 08:32 44.95027 11.92206 9160 ft 241 kts 342°
2026-04-24 08:32 44.96637 11.91539 9156 ft 242 kts 343°
2026-04-24 08:32 44.98258 11.90902 9137 ft 241 kts 344°
2026-04-24 08:33 44.99854 11.90277 9131 ft 241 kts 344°
2026-04-24 08:33 45.01466 11.89641 9160 ft 241 kts 340°
2026-04-24 08:33 45.02861 11.88380 9172 ft 239 kts 316°
2026-04-24 08:33 45.04001 11.86653 9120 ft 240 kts 313°
2026-04-24 08:34 45.05104 11.84890 8982 ft 239 kts 312°
2026-04-24 08:34 45.06201 11.83126 8709 ft 240 kts 312°
2026-04-24 08:34 45.07304 11.81351 8453 ft 240 kts 312°
2026-04-24 08:34 45.08412 11.79584 8217 ft 239 kts 315°
2026-04-24 08:35 45.09791 11.78370 7942 ft 241 kts 346°
2026-04-24 08:35 45.11436 11.78557 7677 ft 244 kts 24°
2026-04-24 08:35 45.12685 11.80166 7425 ft 246 kts 52°
2026-04-24 08:35 45.13655 11.82171 7174 ft 248 kts 54°
2026-04-24 08:36 45.14483 11.84308 6910 ft 251 kts 73°
2026-04-24 08:36 45.14933 11.86685 6730 ft 248 kts 71°
2026-04-24 08:36 45.15574 11.88949 6487 ft 247 kts 61°
2026-04-24 08:36 45.16487 11.90942 6424 ft 235 kts 51°
2026-04-24 08:37 45.17534 11.92647 6291 ft 225 kts 44°
2026-04-24 08:37 45.18623 11.94200 6020 ft 223 kts 44°
2026-04-24 08:37 45.19730 11.95732 5658 ft 224 kts 43°
2026-04-24 08:37 45.20867 11.97223 5419 ft 218 kts 41°
2026-04-24 08:38 45.21979 11.98654 5071 ft 215 kts 41°
2026-04-24 08:38 45.23097 12.00083 4832 ft 212 kts 41°
2026-04-24 08:38 45.24159 12.01440 4737 ft 200 kts 41°
2026-04-24 08:38 45.25181 12.02746 4444 ft 197 kts 41°
2026-04-24 08:39 45.26198 12.04043 4168 ft 195 kts 41°
2026-04-24 08:39 45.27208 12.05327 3851 ft 194 kts 41°
2026-04-24 08:39 45.27446 12.05627 3802 ft 194 kts 41°
2026-04-24 08:40 45.28289 12.06696 3570 ft 193 kts 40°
2026-04-24 08:40 45.28607 12.07092 3470 ft 194 kts 41°
2026-04-24 08:40 45.28650 12.07147 3454 ft 194 kts 41°
2026-04-24 08:40 45.29637 12.08408 3201 ft 193 kts 41°
2026-04-24 08:41 45.30634 12.09693 3029 ft 190 kts 42°
2026-04-24 08:41 45.30974 12.10121 2997 ft 188 kts 40°
2026-04-24 08:47 45.31759 12.11112 3010 ft 187 kts 41°
2026-04-24 08:47 45.32419 12.11966 3020 ft 193 kts 42°
2026-04-24 08:48 45.32750 12.12395 2999 ft 194 kts 42°
2026-04-24 08:48 45.33761 12.13693 3003 ft 196 kts 41°
2026-04-24 08:49 45.34762 12.14975 2987 ft 191 kts 42°
2026-04-24 08:49 45.35747 12.16228 2919 ft 190 kts 40°
2026-04-24 08:49 45.36756 12.17455 2839 ft 191 kts 41°
2026-04-24 08:49 45.37749 12.18703 2675 ft 194 kts 42°
2026-04-24 08:50 45.38740 12.19974 2431 ft 188 kts 42°
2026-04-24 08:50 45.39661 12.21164 2354 ft 171 kts 43°
2026-04-24 08:50 45.40550 12.22317 2220 ft 177 kts 43°
2026-04-24 08:50 45.41439 12.23468 2004 ft 162 kts 43°
2026-04-24 08:51 45.42201 12.24435 1966 ft 130 kts 41°
2026-04-24 08:51 45.42865 12.25239 1730 ft 125 kts 42°
2026-04-24 08:51 45.43526 12.26094 1519 ft 135 kts 44°
2026-04-24 08:51 45.44224 12.27020 1424 ft 134 kts 45°
2026-04-24 08:52 45.44877 12.27917 1187 ft 126 kts 44°
2026-04-24 08:52 45.45577 12.28804 1020 ft 135 kts 42°
2026-04-24 08:52 45.46247 12.29644 789 ft 130 kts 42°
2026-04-24 08:52 45.46998 12.30597 696 ft 137 kts 44°
2026-04-24 08:53 45.47667 12.31494 395 ft 136 kts 45°
2026-04-24 08:53 45.48423 12.32468 309 ft 134 kts 45°
2026-04-24 08:53 45.49065 12.33304 94 ft 117 kts 44°